LDPE-2

Last updated on Fri Dec 19 2025 00:02:53 GMT+0000 (Coordinated Universal Time)

1 54219U 22144A 25352.58333478 .00000026 00000+0 00000+0 0 9998 2 54219 5.2061 64.9292 0002090 259.3367 121.2263 1.02052544 10028
UTC large
Height (km)
Speed (km/s)
/
Latitude / Longitude
Inclination (degrees)
Orbital Period (minutes)
Azimuth
Elevation
Range (km)
Doppler Factor

Next 0 passes for location: London (51.5072 / 0.1276)

Sorry there are no passes over London.